SCOUT A DEB, 3214

Orbit data source: Space-Track

SCOUT A DEB, 3214 is space debris in LEO originally from a launch on Sat, 02 Mar 1968 UTC launched from the Air Force Western Test Range (AFWTR). Debris objects in space refer to the collection of defunct objects orbiting the Earth. Examples of debris include non-operational satellites, rocket bodies, and fragments generated from explosions, collisions, or faulty payload assembly.

Loading next visibility...
Identifier
3214, 1968-012D
Orbit
LEO
Country
Flag of USUS
Related business
Manufacturer
Unknown
Mission
Spacecraft
Bus & Motor
Unknown
Mass
Unknown
Launch date (UTC)
1968-03-02 (58 years ago)
Launch vehicle
Unknown
Launch site
Air Force Western Test Range (AFWTR)
Object type
Payload
Rocket body
Debris
Shape & HBR
Unknown shape, 0.1 m
Radar Cross Section
Small (<0.1 m²)

Expand to show TLE details & history
Last TLE update: 1 day ago

TLE from 1 day ago
0 SCOUT A DEB
1 03214U 68012D   25354.31123075  .00000140  00000-0  25564-3 0  9998
2 03214  89.8253 106.6898 0186346  37.0918  16.5534 13.29231882560779
Epoch: 2025-12-20T07:28Z
TLE epoch observation values (Epoch: 2025-12-20T07:28:10.336Z)
Latitude
54.36228°
Longitude
-94.2507°
Altitude
1,024.412 km
Speed
7.41 km/s
True Right ascension
07h 07m 43s
True Declination
54° 12' 19"
Sunlit
Object was in full shadow at epoch
Visualization orbit readout
Latitude
Unknown
Longitude
Unknown
Altitude
Unknown
Speed
Unknown
Apparent Right ascension
Unknown
Apparent Declination
Unknown
Sunlit
N/A
Visualization observer readout
Local Sidereal Time
07:22:06
Azimuth
Unknown
Elevation
Unknown
Doppler factor
Unknown
Orbital elements
Apogee altitude
1,286.964 km
Perigee altitude
1,006.518 km
Semi-major axis
7,524.878 km
Eccentricity
0.01863
Inclination
89.8253°
RAAN
106.6898°
Arg. of periapsis
37.0918°
True anomaly
17.17565°
Mean anomaly
16.5534°
Eccentric anomaly
16.86312°
Mean motion
3.32502 °/min
Orbital period
108.27 mins
BSTAR
0.00025564
Loading maneuver chart data...
Computing Atmospheric mass density...
Loading historical data...
Loading historical data...
Loading historical data...
Loading historical data...
Loading historical data...
Loading historical data...
Loading historical data...

Documentation

Showing up to 5 results
|